{"data":{"norad_id":65976,"intl_designator":"2025-230C","name":"SDA_1666","alt_names":[],"object_type":"PAYLOAD","status":"ACTIVE","operator":null,"country":"US","launch_date":"2025-10-15","launch_site_code":"AFWTR","launch_vehicle":null,"mission":null,"orbit_class":"UNKNOWN","rcs_meters":null,"size_class":null,"mass_kg":null,"dimensions":null,"purposes":[],"wikipedia_slug":null,"has_3d_model":false,"image_url":null,"decayed_at":null,"tle_current":{"epoch":"2026-05-24T15:46:11.820864Z","epoch_age_seconds":104781,"freshness":"FRESH","line1":"1 65976U 25230C   26144.65708126 -.00006750  00000+0 -61941-2 0  9999","line2":"2 65976  81.2981 233.6607 0001231 189.4690 170.6443 13.83052566 30541","mean_motion":13.83052566,"eccentricity":0.0001231,"inclination_deg":81.2981,"raan_deg":233.6607,"arg_perigee_deg":189.469,"mean_anomaly_deg":170.6443,"bstar":-0.0061941,"rev_number":3054,"period_min":104.11751768515,"perigee_km":952.17711498958,"apogee_km":953.98206051348,"semimajor_km":7331.2165877515,"source":"CELESTRAK","updated_at":"2026-05-25T13:38:05.876704Z"}}}